This demonstration page uses our WeatherBlox Daily Observations layout. Learn more.

Left ArrowRight Arrow

Hourly Observations for October 31, 2021

Temp ( °F °C ) Dew Point ( °F °C ) Humidity (%) Winds ( mph kmh ) Pressure ( in mb ) Visibility ( mi km ) Precip ( " mm )
12:53 am 00:53 Clear 42 5.6 37 2.8 82 82 N 10 17 30.13 1020 10 16 N/A
1:53 am 01:53 Clear 41 5 36 2.2 82 82 NNW 12 19 30.15 1021 10 16 N/A
2:53 am 02:53 Clear 40 4.4 36 2.2 86 86 N 12 19 30.17 1022 10 16 N/A
3:53 am 03:53 Cloudy 40 4.4 36 2.2 86 86 N 9 15 30.19 1022 10 16 N/A
4:53 am 04:53 Mostly Cloudy 41 5 35 1.7 79 79 N 10 17 30.18 1022 10 16 N/A
5:53 am 05:53 Cloudy 40 4.4 35 1.7 83 83 N 9 15 30.21 1023 10 16 N/A
6:53 am 06:53 Mostly Cloudy 40 4.4 34 1.1 79 79 NNW 8 13 30.26 1025 10 16 N/A
7:53 am 07:53 Cloudy 40 4.4 34 1.1 79 79 NNW 7 11 30.28 1026 10 16 N/A
8:53 am 08:53 Cloudy 41 5 34 1.1 76 76 N 12 19 30.31 1027 10 16 N/A
9:53 am 09:53 Cloudy 42 5.6 34 1.1 73 73 N 15 24 30.34 1027 10 16 N/A
10:53 am 10:53 Cloudy 42 5.6 32 undefined 68 68 N 15 24 30.36 1028 10 16 N/A
11:53 am 11:53 Cloudy 42 5.6 29 -1.7 60 60 N 14 22 30.39 1029 10 16 N/A
12:53 pm 12:53 Cloudy 44 6.7 27 -2.8 51 51 NNE 14 22 30.38 1029 10 16 N/A
1:53 pm 13:53 Cloudy 44 6.7 26 -3.3 49 49 N 13 20 30.37 1029 10 16 N/A
2:53 pm 14:53 Cloudy 44 6.7 25 -3.9 47 47 N 14 22 30.36 1028 10 16 N/A
3:53 pm 15:53 Cloudy 44 6.7 25 -3.9 47 47 N 12 19 30.36 1028 10 16 N/A
4:53 pm 16:53 Cloudy 44 6.7 26 -3.3 49 49 N 12 19 30.37 1028 10 16 N/A
5:53 pm 17:53 Cloudy 43 6.1 27 -2.8 53 53 N 9 15 30.36 1028 10 16 N/A
6:53 pm 18:53 Cloudy 42 5.6 29 -1.7 60 60 N 5 7 30.36 1028 10 16 N/A
7:53 pm 19:53 Cloudy 41 5 30 -1.1 65 65 N 5 7 30.37 1028 10 16 N/A
8:53 pm 20:53 Cloudy 42 5.6 31 -0.6 65 65 N 3 6 30.37 1029 10 16 N/A
9:53 pm 21:53 Cloudy 41 5 31 -0.6 67 67 NNW 3 6 30.38 1029 10 16 N/A
10:53 pm 22:53 Cloudy 41 5 30 -1.1 65 65 NNE 10 17 30.39 1029 10 16 N/A
11:53 pm 23:53 Cloudy 40 4.4 31 -0.6 70 70 NNE 7 11 30.40 1029 10 16 N/A

Powered by AerisWeather